Weather History for KGMJ - January, 2014

Change the Weather History Date:

Saturday, January 18, 2014

  Actual Average (KJLN) Record (KJLN)
Temperature  
Mean Temperature 41 °F 35 °F  
Max Temperature 59 °F 45 °F 66 °F (1951)
Min Temperature 23 °F 25 °F -8 °F (1984)
Degree Days  
Heating Degree Days 24 30  
Month to date heating degree days 540  
Since 1 July heating degree days 2157  
Cooling Degree Days 0 0  
Month to date cooling degree days 0  
Year to date cooling degree days 0  
Moisture  
Dew Point 24 °F    
Average Humidity 49    
Maximum Humidity 93    
Minimum Humidity 29    
Precipitation  
Precipitation 0.00 in 0.07 in 0.94 in (1996)
Month to date precipitation 1.20  
Year to date precipitation 1.20  
Sea Level Pressure  
Sea Level Pressure 29.99 in    
Wind  
Wind Speed 8 mph (West)    
Max Wind Speed 24 mph    
Max Gust Speed 37 mph    
Visibility 10 miles    
Events      
T = Trace of Precipitation, MM = Missing Value Source: NWS Daily Summary

Daily Weather History Graph

Daily Weather History Graph

Search for Another Location

Airport or City:

Trip Planner

Search our weather history database for the weather conditions in past years. The results will help you decide how hot, cold, wet, or windy it might be!

Date:

Astronomy

Jan. 18, 2014 Rise Set
Actual Time 7:29 AM CST 5:29 PM CST
Civil Twilight 7:01 AM CST 5:57 PM CST
Nautical Twilight 6:29 AM CST 6:29 PM CST
Astronomical Twilight 5:58 AM CST 7:00 PM CST
Moon 8:07 PM CST (1/18) 8:34 AM CST (1/18)
Length of Visible Light 10h 56m
Length of Day
10h 00m
Waning Gibbous, 94% of the Moon is Illuminated
Jan 18
Waning Gibbous
Jan 23
Last Quarter
Jan 30
New
Feb 6
First Quarter
Feb 14
Full

Hourly Weather History & Observations

Time (CST) Temp. Windchill Dew Point Humidity Pressure Visibility Wind Dir Wind Speed Gust Speed Precip Events Conditions
12:15 AM 23.0 °F - 19.4 °F 86% 30.10 in 10.0 mi Calm Calm - N/A   Clear
12:35 AM 23.0 °F - 19.4 °F 86% 30.09 in 10.0 mi Calm Calm - N/A   Clear
12:55 AM 23.0 °F - 21.2 °F 93% 30.08 in 10.0 mi Calm Calm - N/A   Clear
1:15 AM 23.0 °F - 21.2 °F 93% 30.08 in 10.0 mi Calm Calm - N/A   Clear
1:35 AM 23.0 °F - 19.4 °F 86% 30.07 in 10.0 mi Calm Calm - N/A   Clear
1:55 AM 23.0 °F - 21.2 °F 93% 30.06 in 10.0 mi Calm Calm - N/A   Clear
2:15 AM 24.8 °F - 21.2 °F 86% 30.06 in 10.0 mi Calm Calm - N/A   Mostly Cloudy
2:35 AM 26.6 °F - 21.2 °F 80% 30.05 in 10.0 mi Calm Calm - N/A   Mostly Cloudy
2:55 AM 32.0 °F 26.4 °F 21.2 °F 64% 30.04 in 10.0 mi South 5.8 mph - N/A   Overcast
3:15 AM 32.0 °F 24.8 °F 21.2 °F 64% 30.02 in 10.0 mi South 8.1 mph - N/A   Overcast
3:35 AM 33.8 °F 28.6 °F 19.4 °F 56% 30.01 in 10.0 mi SSW 5.8 mph - N/A   Scattered Clouds
3:55 AM 33.8 °F 27.0 °F 19.4 °F 56% 29.99 in 10.0 mi SSW 8.1 mph - N/A   Clear
4:15 AM 33.8 °F 30.8 °F 19.4 °F 56% 29.99 in 10.0 mi SSW 3.5 mph - N/A   Clear
4:35 AM 33.8 °F 30.8 °F 17.6 °F 52% 29.98 in 10.0 mi SSW 3.5 mph - N/A   Clear
4:55 AM 35.6 °F 29.2 °F 19.4 °F 52% 29.97 in 10.0 mi SW 8.1 mph - N/A   Clear
5:15 AM 37.4 °F 31.4 °F 19.4 °F 48% 29.96 in 10.0 mi SSW 8.1 mph - N/A   Clear
5:35 AM 37.4 °F 30.3 °F 19.4 °F 48% 29.96 in 10.0 mi SSW 10.4 mph - N/A   Clear
5:55 AM 41.0 °F 34.3 °F 19.4 °F 42% 29.95 in 10.0 mi SSW 11.5 mph - N/A   Scattered Clouds
6:15 AM 41.0 °F 34.3 °F 19.4 °F 42% 29.94 in 10.0 mi SSW 11.5 mph - N/A   Mostly Cloudy
6:35 AM 39.2 °F 32.5 °F 19.4 °F 45% 29.93 in 10.0 mi SSW 10.4 mph 18.4 mph N/A   Scattered Clouds
6:55 AM 37.4 °F 30.8 °F 19.4 °F 48% 29.93 in 10.0 mi SSW 9.2 mph - N/A   Clear
7:15 AM 37.4 °F 30.8 °F 19.4 °F 48% 29.92 in 10.0 mi SSW 9.2 mph - N/A   Clear
7:35 AM 39.2 °F 33.6 °F 21.2 °F 49% 29.91 in 10.0 mi SSW 8.1 mph - N/A   Clear
7:55 AM 41.0 °F 34.3 °F 21.2 °F 45% 29.91 in 10.0 mi SW 11.5 mph - N/A   Clear
8:15 AM 42.8 °F 37.5 °F 21.2 °F 42% 29.91 in 10.0 mi SW 9.2 mph - N/A   Clear
8:35 AM 44.6 °F 38.4 °F 21.2 °F 39% 29.91 in 10.0 mi SW 12.7 mph 19.6 mph N/A   Clear
8:55 AM 44.6 °F 38.4 °F 23.0 °F 43% 29.91 in 10.0 mi SW 12.7 mph 24.2 mph N/A   Clear
9:15 AM 46.4 °F 39.5 °F 23.0 °F 40% 29.91 in 10.0 mi WSW 17.3 mph 24.2 mph N/A   Clear
9:35 AM 46.4 °F 39.5 °F 23.0 °F 40% 29.92 in 10.0 mi WSW 17.3 mph 23.0 mph N/A   Clear
9:55 AM 46.4 °F 40.4 °F 23.0 °F 40% 29.92 in 10.0 mi West 13.8 mph 24.2 mph N/A   Clear
10:15 AM 46.4 °F 40.1 °F 23.0 °F 40% 29.93 in 10.0 mi WSW 15.0 mph 21.9 mph N/A   Clear
10:35 AM 48.2 °F - 23.0 °F 37% 29.93 in 10.0 mi WSW 15.0 mph 23.0 mph N/A   Clear
10:55 AM 48.2 °F - 24.8 °F 40% 29.93 in 10.0 mi West 13.8 mph 21.9 mph N/A   Clear
11:15 AM 50.0 °F - 26.6 °F 40% 29.92 in 10.0 mi West 11.5 mph 17.3 mph N/A   Clear
11:35 AM 51.8 °F - 26.6 °F 38% 29.92 in 10.0 mi West 10.4 mph 18.4 mph N/A   Clear
11:55 AM 51.8 °F - 26.6 °F 38% 29.91 in 10.0 mi West 8.1 mph 19.6 mph N/A   Clear
12:15 PM 53.6 °F - 28.4 °F 38% 29.89 in 10.0 mi West 11.5 mph 17.3 mph N/A   Clear
12:35 PM 55.4 °F - 28.4 °F 36% 29.88 in 10.0 mi West 11.5 mph 17.3 mph N/A   Clear
12:55 PM 55.4 °F - 28.4 °F 36% 29.87 in 10.0 mi West 12.7 mph 20.7 mph N/A   Clear
1:15 PM 59.0 °F - 28.4 °F 31% 29.87 in 10.0 mi WNW 19.6 mph 26.5 mph N/A   Clear
1:35 PM 59.0 °F - 28.4 °F 31% 29.88 in 10.0 mi WNW 24.2 mph 29.9 mph N/A   Clear
1:55 PM 59.0 °F - 26.6 °F 29% 29.88 in 10.0 mi WNW 17.3 mph 28.8 mph N/A   Clear
2:15 PM 59.0 °F - 26.6 °F 29% 29.89 in 10.0 mi NW 19.6 mph 29.9 mph N/A   Clear
2:35 PM 57.2 °F - 26.6 °F 31% 29.90 in 10.0 mi NW 18.4 mph 29.9 mph N/A   Clear
2:55 PM 57.2 °F - 26.6 °F 31% 29.91 in 10.0 mi NW 23.0 mph 36.8 mph N/A   Clear
3:15 PM 55.4 °F - 24.8 °F 31% 29.92 in 10.0 mi WNW 20.7 mph 28.8 mph N/A   Clear
3:35 PM 55.4 °F - 24.8 °F 31% 29.93 in 10.0 mi NW 23.0 mph 33.4 mph N/A   Clear
3:55 PM 53.6 °F - 26.6 °F 35% 29.95 in 10.0 mi NW 23.0 mph 32.2 mph N/A   Clear
4:15 PM 53.6 °F - 26.6 °F 35% 29.97 in 10.0 mi NW 21.9 mph 28.8 mph N/A   Clear
4:35 PM 53.6 °F - 24.8 °F 33% 29.98 in 10.0 mi NW 21.9 mph 27.6 mph N/A   Clear
4:55 PM 51.8 °F - 26.6 °F 38% 29.99 in 10.0 mi NW 20.7 mph 25.3 mph N/A   Clear
5:15 PM 51.8 °F - 24.8 °F 35% 30.00 in 10.0 mi NW 13.8 mph 21.9 mph N/A   Clear
5:35 PM 50.0 °F - 24.8 °F 37% 30.01 in 10.0 mi NW 11.5 mph 18.4 mph N/A   Clear
5:55 PM 48.2 °F - 26.6 °F 43% 30.03 in 10.0 mi NW 11.5 mph 24.2 mph N/A   Clear
6:15 PM 48.2 °F - 26.6 °F 43% 30.04 in 10.0 mi NW 10.4 mph 23.0 mph N/A   Clear
6:35 PM 46.4 °F 41.5 °F 26.6 °F 46% 30.05 in 10.0 mi NW 10.4 mph 16.1 mph N/A   Clear
6:55 PM 46.4 °F 41.9 °F 26.6 °F 46% 30.05 in 10.0 mi NW 9.2 mph 19.6 mph N/A   Clear
7:15 PM 44.6 °F 40.2 °F 26.6 °F 49% 30.06 in 10.0 mi WNW 8.1 mph - N/A   Clear
7:35 PM 44.6 °F 39.2 °F 26.6 °F 49% 30.07 in 10.0 mi WNW 10.4 mph 16.1 mph N/A   Clear
7:55 PM 44.6 °F 39.2 °F 26.6 °F 49% 30.08 in 10.0 mi WNW 10.4 mph 18.4 mph N/A   Clear
8:15 PM 44.6 °F 38.8 °F 26.6 °F 49% 30.08 in 10.0 mi WNW 11.5 mph 16.1 mph N/A   Clear
8:35 PM 44.6 °F 37.8 °F 26.6 °F 49% 30.09 in 10.0 mi WNW 15.0 mph 20.7 mph N/A   Clear
8:55 PM 44.6 °F 38.4 °F 26.6 °F 49% 30.09 in 10.0 mi WNW 12.7 mph 19.6 mph N/A   Clear
9:15 PM 42.8 °F 36.6 °F 26.6 °F 53% 30.10 in 10.0 mi WNW 11.5 mph 19.6 mph N/A   Clear
9:35 PM 42.8 °F 36.2 °F 26.6 °F 53% 30.11 in 10.0 mi WNW 12.7 mph 17.3 mph N/A   Clear
9:55 PM 42.8 °F 36.2 °F 26.6 °F 53% 30.12 in 10.0 mi NW 12.7 mph 20.7 mph N/A   Clear
10:15 PM 41.0 °F 35.2 °F 26.6 °F 57% 30.13 in 10.0 mi NW 9.2 mph 16.1 mph N/A   Clear
10:35 PM 41.0 °F 35.2 °F 26.6 °F 57% 30.14 in 10.0 mi NW 9.2 mph - N/A   Clear
10:55 PM 39.2 °F 31.2 °F 26.6 °F 61% 30.15 in 10.0 mi NNW 13.8 mph 19.6 mph N/A   Clear
11:15 PM 37.4 °F 29.8 °F 24.8 °F 60% 30.16 in 10.0 mi NNW 11.5 mph 19.6 mph N/A   Clear
11:35 PM 35.6 °F 29.9 °F 23.0 °F 60% 30.16 in 10.0 mi NNW 6.9 mph - N/A   Clear
11:55 PM 35.6 °F 28.0 °F 23.0 °F 60% 30.17 in 10.0 mi NNW 10.4 mph 18.4 mph N/A   Clear